Weather History for Quinhagak|Kwinhagak Airport, AK

Change the Weather History Date:

Tuesday, January 21, 2014

  Actual Average (PABE) Record (PABE)
Temperature  
Mean Temperature 32 °F -  
Max Temperature 37 °F 12 °F 41 °F (1963)
Min Temperature 28 °F - -46 °F (1973)
Degree Days  
Heating Degree Days 32 59  
Month to date heating degree days 1234  
Since 1 July heating degree days 6658  
Cooling Degree Days 0    
Month to date cooling degree days  
Year to date cooling degree days  
Moisture  
Dew Point 30 °F    
Average Humidity 92    
Maximum Humidity 100    
Minimum Humidity 78    
Precipitation  
Precipitation 0.00 in 0.02 in 0.67 in (1963)
Month to date precipitation 0.55  
Year to date precipitation 0.55  
Snow  
Snow 0.00 in 0.30 in 4.60 in (1969)
Month to date snowfall 6.9  
Since 1 July snowfall 36.2  
Snow Depth -    
Sea Level Pressure  
Sea Level Pressure 29.25 in    
Wind  
Wind Speed 18 mph (SSE)    
Max Wind Speed 30 mph    
Max Gust Speed 38 mph    
Visibility 6 miles    
Events Fog , Rain , Snow    
T = Trace of Precipitation, MM = Missing Value Source: NWS Daily Summary

Daily Weather History Graph

Daily Weather History Graph

Search for Another Location

Airport:

Trip Planner

Search our weather history database for the weather conditions in past years. The results will help you decide how hot, cold, wet, or windy it might be!

Date:

Astronomy

Jan. 21, 2014 Rise Set
Actual Time 10:22 AM AKST 5:35 PM AKST
Civil Twilight 9:32 AM AKST 6:26 PM AKST
Nautical Twilight 8:39 AM AKST 7:18 PM AKST
Astronomical Twilight 7:50 AM AKST 8:07 PM AKST
Moon No Moon Rise 11:26 AM AKST (1/21)
Length of Visible Light 8h 53m
Length of Day
7h 13m
Waning Gibbous, 73% of the Moon is Illuminated
Jan 21
Waning Gibbous
Jan 23
Last Quarter
Jan 30
New
Feb 6
First Quarter
Feb 14
Full

Hourly Weather History & Observations

Time (AKST) Temp. Windchill Dew Point Humidity Pressure Visibility Wind Dir Wind Speed Gust Speed Precip Events Conditions
1:56 AM 37.9 °F 26.1 °F 34.0 °F 86% 29.09 in 10.0 mi East 27.6 mph 33.4 mph 0.00 in Rain Light Rain
3:40 AM 37.4 °F 27.5 °F 33.8 °F 87% 29.08 in 10.0 mi ESE 18.4 mph 28.8 mph N/A   Partly Cloudy
3:56 AM 37.0 °F 28.5 °F 33.1 °F 86% 29.10 in 10.0 mi ESE 13.8 mph 26.5 mph N/A   Scattered Clouds
4:11 AM 37.4 °F 29.8 °F 33.8 °F 87% 29.09 in 10.0 mi East 11.5 mph 18.4 mph N/A   Mostly Cloudy
4:56 AM 37.0 °F 32.4 °F 33.1 °F 86% 29.10 in 10.0 mi SSW 5.8 mph - N/A   Overcast
5:56 AM 37.9 °F 30.5 °F 32.0 °F 79% 29.09 in 10.0 mi ESE 11.5 mph - 0.00 in   Overcast
6:53 AM 35.6 °F 24.0 °F 32.0 °F 87% 29.06 in 10.0 mi East 23.0 mph - N/A   Partly Cloudy
6:56 AM 36.0 °F 24.7 °F 32.0 °F 86% 29.06 in 10.0 mi East 21.9 mph - N/A   Partly Cloudy
7:56 AM 35.1 °F 28.6 °F 32.0 °F 89% 29.08 in 10.0 mi ESE 8.1 mph - N/A   Mostly Cloudy
8:15 AM 33.8 °F 28.6 °F 30.2 °F 87% 29.08 in 10.0 mi ESE 5.8 mph - N/A   Overcast
8:48 AM 35.6 °F 30.7 °F 30.2 °F 81% 29.08 in 10.0 mi Variable 5.8 mph - N/A   Scattered Clouds
8:56 AM 35.1 °F 31.0 °F 30.9 °F 85% 29.09 in 10.0 mi NNE 4.6 mph - N/A   Clear
9:56 AM 33.1 °F 30.0 °F 30.9 °F 92% 29.09 in 10.0 mi East 3.5 mph - N/A   Overcast
10:56 AM 34.0 °F 24.6 °F 30.9 °F 89% 29.10 in 10.0 mi East 13.8 mph - N/A   Partly Cloudy
11:56 AM 35.1 °F 25.5 °F 30.0 °F 82% 29.12 in 10.0 mi East 15.0 mph - N/A   Clear
12:56 PM 35.1 °F 22.7 °F 30.0 °F 82% 29.12 in 10.0 mi East 25.3 mph - N/A   Clear
1:56 PM 35.1 °F 25.5 °F 28.9 °F 78% 29.13 in 10.0 mi East 15.0 mph 24.2 mph N/A   Scattered Clouds
2:56 PM 35.1 °F 23.5 °F 30.9 °F 85% 29.15 in 10.0 mi ESE 21.9 mph - N/A   Mostly Cloudy
3:48 PM 33.8 °F 20.5 °F 30.2 °F 87% 29.18 in 10.0 mi SSE 27.6 mph 34.5 mph 0.00 in   Overcast
3:56 PM 33.1 °F 20.1 °F 30.9 °F 92% 29.19 in 5.0 mi SSE 25.3 mph - 0.00 in   Overcast
4:01 PM 33.8 °F 21.9 °F 30.2 °F 87% 29.19 in 1.8 mi SSE 21.9 mph - 0.00 in   Overcast
4:16 PM 32.0 °F 17.6 °F 30.2 °F 93% 29.20 in 1.2 mi SSE 29.9 mph 38.0 mph 0.00 in   Overcast
4:25 PM 32.0 °F 18.1 °F 30.2 °F 93% 29.21 in 0.8 mi SSE 27.6 mph 33.4 mph 0.00 in   Overcast
4:37 PM 32.0 °F 18.4 °F 30.2 °F 93% 29.22 in 1.0 mi SSE 26.5 mph 34.5 mph 0.00 in   Overcast
4:53 PM 30.2 °F 15.9 °F 30.2 °F 100% 29.24 in 0.8 mi SSE 26.5 mph 33.4 mph 0.00 in   Overcast
4:56 PM 30.9 °F 16.9 °F 30.9 °F 100% 29.24 in 0.8 mi SSE 26.5 mph 32.2 mph 0.00 in   Overcast
5:02 PM 30.2 °F 16.5 °F 30.2 °F 100% 29.24 in 1.2 mi SSE 24.2 mph 32.2 mph 0.00 in   Overcast
5:12 PM 30.2 °F 15.9 °F 30.2 °F 100% 29.26 in 3.0 mi South 26.5 mph 31.1 mph 0.00 in   Overcast
5:35 PM 30.2 °F 16.2 °F 30.2 °F 100% 29.29 in 1.5 mi South 25.3 mph 32.2 mph 0.00 in   Overcast
5:39 PM 30.2 °F 16.8 °F 30.2 °F 100% 29.29 in 0.8 mi South 23.0 mph 32.2 mph 0.00 in Snow Light Snow
5:48 PM 30.2 °F 16.8 °F 30.2 °F 100% 29.30 in 0.5 mi South 23.0 mph - 0.00 in Fog , Snow Light Snow
5:54 PM 30.2 °F 17.4 °F 30.2 °F 100% 29.31 in 1.0 mi South 20.7 mph - 0.00 in Snow Light Snow
5:56 PM 30.9 °F 18.4 °F 30.0 °F 96% 29.31 in 1.2 mi South 20.7 mph - 0.00 in   Overcast
6:03 PM 30.2 °F 17.4 °F 30.2 °F 100% 29.32 in 3.0 mi South 20.7 mph - N/A   Overcast
6:06 PM 30.2 °F 17.4 °F 30.2 °F 100% 29.32 in 1.8 mi South 20.7 mph - N/A   Overcast
6:21 PM 30.2 °F 18.1 °F 30.2 °F 100% 29.34 in 3.0 mi South 18.4 mph - N/A   Overcast
6:40 PM 30.2 °F 18.1 °F 28.4 °F 93% 29.36 in 1.2 mi South 18.4 mph - N/A   Overcast
6:42 PM 30.2 °F 18.9 °F 28.4 °F 93% 29.37 in 0.8 mi South 16.1 mph - N/A   Overcast
6:56 PM 28.9 °F 17.7 °F 28.9 °F 100% 29.39 in 0.5 mi South 15.0 mph - N/A Fog Light Freezing Fog
7:15 PM 30.2 °F 20.8 °F 28.4 °F 93% 29.39 in 1.0 mi SW 11.5 mph - N/A   Overcast
7:21 PM 30.2 °F 19.8 °F 28.4 °F 93% 29.40 in 2.0 mi SW 13.8 mph - N/A   Overcast
7:29 PM 30.2 °F 18.9 °F 30.2 °F 100% 29.42 in 10.0 mi SW 16.1 mph - N/A   Overcast
7:56 PM 30.9 °F 19.8 °F 28.9 °F 92% 29.45 in 10.0 mi SW 16.1 mph - N/A   Overcast
8:17 PM 30.2 °F 18.5 °F 28.4 °F 93% 29.45 in 10.0 mi SW 17.3 mph - N/A   Overcast
8:38 PM 30.2 °F 19.3 °F 28.4 °F 93% 29.46 in 10.0 mi WSW 15.0 mph - N/A   Overcast
8:56 PM 30.0 °F 21.1 °F 27.0 °F 88% 29.49 in 10.0 mi SW 10.4 mph - N/A   Overcast
9:56 PM 30.0 °F 23.2 °F 28.0 °F 92% 29.52 in 10.0 mi SSW 6.9 mph - N/A   Overcast
10:56 PM 30.0 °F 26.5 °F 28.0 °F 92% 29.55 in 10.0 mi SSW 3.5 mph - N/A   Overcast
11:56 PM 28.9 °F 23.9 °F 27.0 °F 92% 29.57 in 10.0 mi WSW 4.6 mph - N/A   Overcast